Total_Precipitation_Accumulation
0.00 0.00 0.00 0.00 0.00 0.00 0.00 0.00 0.00 0.00 0.00 0.00 0.00 0.00 0.00 0.00 0.00 0.00 0.00 0.00 0.00 0.00 0.00 0.00 0.00 0.00 0.00 0.00 0.00 0.00 0.00 0.00 0.00 0.00 0.00 0.00 0.00 0.00 0.00 0.00 0.00 0.00 0.00 0.00 0.00 0.00 0.00
0.00 0.00 0.00 0.00 0.00 0.00 0.00 0.00 0.00 0.00 0.00 0.00 0.00 0.00 0.00 0.00 0.00 0.00 0.00 0.00 0.00 0.00 0.00 0.00 0.00 0.00 0.00 0.00 0.00 0.00 0.00 0.00 0.00 0.00 0.00 0.00 0.00 0.00 0.00 0.00 0.00 0.00 0.00 0.00 0.00 0.00 0.00
0.00 0.00 0.00 0.00 0.00 0.00 0.00 0.00 0.00 0.00 0.00 0.00 0.00 0.00 0.00 0.00 0.00 0.00 0.00 0.00 0.00 0.00 0.00 0.00 0.00 0.00 0.00 0.00 0.00 0.00 0.00 0.00 0.00 0.00 0.00 0.00 0.00 0.00 0.00 0.00 0.00 0.00 0.00 0.00 0.00 0.00 0.00
0.00 0.00 0.00 0.00 0.00 0.00 0.00 0.00 0.00 0.00 0.00 0.00 0.00 0.00 0.00 0.00 0.00 0.00 0.00 0.00 0.00 0.00 0.00 0.00 0.00 0.00 0.00 0.00 0.00 0.00 0.00 0.00 0.00 0.00 0.00 0.00 0.00 0.00 0.00 0.00 0.00 0.00 0.00 0.00 0.00 0.00 0.00
0.00 0.00 0.00 0.00 0.00 0.00 0.00 0.00 0.00 0.00 0.00 0.00 0.00 0.00 0.00 0.00 0.00 0.00 0.00 0.00 0.00 0.00 0.00 0.00 0.00 0.00 0.00 0.00 0.00 0.00 0.00 0.00 0.00 0.00 0.00 0.00 0.00 0.00 0.00 0.00 0.00 0.00 0.00 0.00 0.00 0.00 0.00
0.00 0.00 0.00 0.00 0.00 0.00 0.00 0.00 0.00 0.00 0.00 0.00 0.00 0.00 0.00 0.00 0.00 0.00 0.00 0.00 0.00 0.00 0.00 0.00 0.00 0.00 0.00 0.00 0.00 0.00 0.00 0.00 0.00 0.00 0.00 0.00 0.00 0.00 0.00 0.00 0.00 0.00 0.00 0.00 0.00 0.00 0.00
0.00 0.00 0.00 0.00 0.00 0.00 0.00 0.00 0.00 0.00 0.00 0.00 0.00 0.00 0.00 0.00 0.00 0.00 0.00 0.00 0.00 0.00 0.00 0.00 0.00 0.00 0.00 0.00 0.00 0.00 0.00 0.00 0.00 0.00 0.00 0.00 0.00 0.00 0.00 0.00 0.00 0.00 0.00 0.00 0.00 0.00 0.00
0.01 0.01 0.01 0.00 0.00 0.00 0.00 0.00 0.00 0.00 0.00 0.00 0.00 0.00 0.00 0.00 0.00 0.00 0.00 0.00 0.00 0.00 0.00 0.00 0.00 0.00 0.00 0.00 0.00 0.00 0.00 0.00 0.00 0.00 0.00 0.00 0.00 0.00 0.00 0.00 0.00 0.00 0.00 0.00 0.00 0.00 0.00
0.02 0.02 0.02 0.02 0.01 0.01 0.00 0.00 0.00 0.00 0.00 0.00 0.00 0.00 0.00 0.00 0.00 0.00 0.00 0.00 0.00 0.00 0.00 0.00 0.00 0.00 0.00 0.00 0.00 0.00 0.00 0.00 0.00 0.00 0.00 0.00 0.00 0.00 0.00 0.00 0.00 0.00 0.00 0.00 0.00 0.00 0.00
0.07 0.05 0.02 0.01 0.01 0.01 0.00 0.00 0.00 0.00 0.00 0.00 0.00 0.00 0.00 0.00 0.00 0.00 0.00 0.00 0.00 0.00 0.00 0.00 0.00 0.00 0.00 0.00 0.00 0.00 0.00 0.00 0.00 0.00 0.00 0.00 0.00 0.00 0.00 0.00 0.00 0.00 0.00 0.00 0.00 0.00 0.00
0.11 0.09 0.07 0.06 0.05 0.03 0.02 0.02 0.01 0.01 0.00 0.00 0.00 0.00 0.00 0.00 0.00 0.00 0.00 0.00 0.00 0.00 0.00 0.00 0.00 0.00 0.00 0.00 0.00 0.00 0.00 0.00 0.00 0.00 0.00 0.00 0.00 0.00 0.00 0.00 0.00 0.00 0.00 0.00 0.00 0.00 0.00
0.21 0.18 0.17 0.14 0.12 0.08 0.05 0.04 0.04 0.03 0.03 0.01 0.02 0.03 0.03 0.00 0.00 0.00 0.00 0.00 0.00 0.00 0.00 0.00 0.00 0.00 0.00 0.00 0.00 0.00 0.00 0.00 0.00 0.00 0.00 0.00 0.00 0.00 0.00 0.00 0.00 0.00 0.00 0.00 0.00 0.00 0.00
0.21 0.20 0.21 0.21 0.19 0.16 0.11 0.09 0.07 0.06 0.04 0.03 0.02 0.06 0.07 0.01 0.00 0.00 0.00 0.00 0.01 0.01 0.00 0.00 0.00 0.00 0.00 0.00 0.00 0.00 0.00 0.00 0.00 0.00 0.00 0.00 0.00 0.00 0.00 0.00 0.00 0.00 0.00 0.00 0.00 0.00 0.00
0.13 0.16 0.20 0.20 0.19 0.21 0.22 0.21 0.19 0.16 0.11 0.08 0.05 0.07 0.12 0.02 0.00 0.00 0.00 0.01 0.02 0.00 0.00 0.00 0.00 0.00 0.00 0.00 0.00 0.00 0.00 0.00 0.00 0.00 0.00 0.00 0.00 0.00 0.00 0.00 0.00 0.00 0.00 0.00 0.00 0.00 0.00
0.12 0.10 0.09 0.10 0.13 0.14 0.14 0.16 0.19 0.22 0.22 0.21 0.20 0.11 0.15 0.04 0.01 0.01 0.04 0.05 0.01 0.00 0.00 0.00 0.00 0.00 0.00 0.00 0.00 0.00 0.00 0.00 0.00 0.00 0.00 0.00 0.00 0.00 0.00 0.00 0.00 0.00 0.00 0.00 0.00 0.00 0.00
0.20 0.17 0.15 0.13 0.10 0.08 0.06 0.04 0.05 0.09 0.14 0.21 0.13 0.18 0.23 0.10 0.10 0.21 0.31 0.18 0.01 0.00 0.00 0.00 0.00 0.00 0.00 0.00 0.00 0.00 0.00 0.00 0.00 0.00 0.00 0.00 0.00 0.00 0.00 0.00 0.00 0.00 0.00 0.00 0.00 0.00 0.00
0.28 0.28 0.27 0.23 0.18 0.13 0.09 0.05 0.02 0.03 0.08 0.20 0.13 0.13 0.09 0.15 0.51 1.10 0.62 0.13 0.02 0.00 0.00 0.00 0.00 0.01 0.01 0.02 0.01 0.01 0.01 0.00 0.00 0.00 0.00 0.00 0.00 0.00 0.00 0.00 0.00 0.00 0.00 0.00 0.00 0.00 0.00
0.23 0.22 0.24 0.27 0.30 0.27 0.18 0.12 0.09 0.09 0.11 0.24 0.28 0.28 0.12 0.42 0.85 0.78 0.29 0.07 0.06 0.01 0.01 0.00 0.01 0.02 0.03 0.05 0.06 0.04 0.01 0.00 0.00 0.00 0.00 0.00 0.00 0.00 0.00 0.00 0.00 0.00 0.00 0.00 0.00 0.00 0.00
0.22 0.22 0.23 0.29 0.29 0.30 0.28 0.22 0.16 0.20 0.27 0.35 0.59 0.54 0.22 0.60 0.98 0.66 0.28 0.13 0.09 0.07 0.06 0.07 0.06 0.04 0.03 0.05 0.09 0.03 0.01 0.00 0.00 0.00 0.00 0.00 0.03 0.02 0.01 0.00 0.00 0.00 0.00 0.00 0.00 0.00 0.01
0.22 0.23 0.22 0.28 0.31 0.30 0.29 0.29 0.26 0.28 0.45 0.60 0.77 0.76 0.56 0.73 0.84 0.63 0.49 0.39 0.39 0.34 0.25 0.33 0.31 0.17 0.16 0.12 0.08 0.10 0.05 0.00 0.00 0.01 0.02 0.03 0.13 0.04 0.00 0.00 0.00 0.00 0.00 0.00 0.00 0.06 0.02
0.12 0.13 0.17 0.22 0.31 0.36 0.30 0.23 0.24 0.24 0.44 0.73 0.84 0.65 0.47 0.57 0.66 0.80 0.84 0.80 0.59 0.55 0.60 0.57 0.62 0.50 0.44 0.42 0.34 0.34 0.28 0.20 0.12 0.09 0.12 0.23 0.38 0.09 0.02 0.00 0.00 0.00 0.00 0.01 0.05 0.03 0.10
0.13 0.11 0.09 0.11 0.17 0.27 0.31 0.26 0.22 0.18 0.40 0.91 0.68 0.46 0.41 0.39 0.36 0.56 0.86 0.80 0.57 0.50 0.61 0.58 0.75 0.76 0.84 0.89 0.73 0.59 0.52 0.52 0.41 0.25 0.23 0.34 0.49 0.21 0.11 0.01 0.02 0.04 0.00 0.01 0.03 0.01 0.02
0.15 0.14 0.13 0.10 0.10 0.13 0.21 0.21 0.18 0.21 0.45 0.63 0.41 0.31 0.59 0.58 0.31 0.36 0.39 0.33 0.31 0.37 0.50 0.43 0.35 0.43 0.40 0.37 0.43 0.50 0.46 0.39 0.43 0.37 0.36 0.52 0.53 0.49 0.30 0.06 0.13 0.15 0.01 0.00 0.00 0.00 0.00
0.19 0.18 0.16 0.15 0.14 0.16 0.21 0.27 0.21 0.19 0.32 0.49 0.43 0.46 0.73 0.77 0.33 0.19 0.08 0.12 0.22 0.27 0.38 0.16 0.16 0.29 0.21 0.16 0.21 0.23 0.22 0.18 0.14 0.12 0.16 0.36 0.42 0.62 0.46 0.31 0.43 0.03 0.00 0.00 0.00 0.00 0.00
0.19 0.19 0.21 0.19 0.17 0.15 0.17 0.26 0.29 0.27 0.33 0.46 0.45 0.77 1.04 0.85 0.28 0.13 0.09 0.12 0.13 0.14 0.32 0.34 0.14 0.12 0.18 0.33 0.43 0.34 0.16 0.12 0.07 0.02 0.02 0.10 0.37 0.79 0.72 0.48 0.20 0.02 0.00 0.00 0.00 0.00 0.00
0.19 0.17 0.16 0.16 0.17 0.20 0.24 0.31 0.31 0.33 0.38 0.53 0.45 0.59 1.34 1.34 0.45 0.05 0.08 0.08 0.12 0.12 0.13 0.13 0.04 0.06 0.21 0.50 0.66 0.53 0.20 0.06 0.01 0.01 0.00 0.03 0.25 0.90 1.09 0.77 0.26 0.02 0.00 0.00 0.00 0.01 0.00
0.16 0.19 0.22 0.20 0.20 0.21 0.21 0.27 0.38 0.41 0.42 0.62 0.53 0.39 1.20 1.64 0.57 0.07 0.17 0.12 0.06 0.09 0.22 0.08 0.05 0.11 0.34 0.83 0.99 0.59 0.30 0.09 0.10 0.01 0.00 0.02 0.13 0.47 0.55 0.80 0.51 0.04 0.00 0.01 0.11 0.04 0.00
0.21 0.21 0.23 0.23 0.21 0.23 0.25 0.27 0.31 0.37 0.51 0.91 0.91 0.37 0.79 1.32 0.57 0.10 0.10 0.15 0.12 0.13 0.24 0.18 0.33 0.43 0.54 0.90 0.83 0.54 0.47 0.21 0.18 0.06 0.02 0.02 0.06 0.10 0.18 0.43 0.26 0.00 0.00 0.00 0.01 0.00 0.00
0.20 0.23 0.26 0.24 0.25 0.21 0.16 0.16 0.26 0.38 0.55 0.97 0.98 0.54 0.75 1.28 1.00 0.15 0.03 0.04 0.09 0.16 0.29 0.47 0.45 0.23 0.38 0.62 0.60 0.57 0.65 0.49 0.23 0.18 0.01 0.06 0.08 0.08 0.04 0.03 0.00 0.00 0.00 0.00 0.00 0.00 0.00